CAL7904 RCTP-ROIG

Flight info

Callsign CAL7904
Flight time 0h 35m
Altitude 17000
Route KUDOS1A KUDOS R595 BRENT DCT AYAKA
Aircraft A21N/M-SDE1E2E3FGHIJ1J3J4J7M3P2RWY/LB1D1

Departure

Time 2026-04-26 10:56
Airport Taiwan Taoyuan International Airport (RCTP)

Arrival

Time 2026-04-26 11:31
Airport New Ishigaki Airport (ROIG)
Time Latitude Longitude Altitude Speed Heading
2026-04-26 10:31 25.07844 121.22989 85 ft 0 kts 139°
2026-04-26 10:34 25.07843 121.22989 101 ft 0 kts 139°
2026-04-26 10:45 25.07861 121.22972 98 ft 4 kts 139°
2026-04-26 10:45 25.07882 121.22952 98 ft 4 kts 139°
2026-04-26 10:46 25.07896 121.22939 101 ft 4 kts 139°
2026-04-26 10:46 25.07918 121.22919 100 ft 3 kts 167°
2026-04-26 10:46 25.07944 121.22920 99 ft 4 kts 224°
2026-04-26 10:46 25.07954 121.22931 100 ft 2 kts 229°
2026-04-26 10:47 25.07956 121.22933 100 ft 0 kts 229°
2026-04-26 10:47 25.07956 121.22934 100 ft 0 kts 229°
2026-04-26 10:49 25.07935 121.22908 100 ft 9 kts 229°
2026-04-26 10:49 25.07880 121.22837 100 ft 15 kts 229°
2026-04-26 10:49 25.07806 121.22741 101 ft 18 kts 229°
2026-04-26 10:50 25.07712 121.22619 101 ft 21 kts 230°
2026-04-26 10:50 25.07648 121.22535 101 ft 23 kts 228°
2026-04-26 10:50 25.07491 121.22341 100 ft 26 kts 231°
2026-04-26 10:50 25.07366 121.22175 101 ft 29 kts 231°
2026-04-26 10:51 25.07280 121.22077 101 ft 7 kts 218°
2026-04-26 10:51 25.07180 121.22109 100 ft 10 kts 134°
2026-04-26 10:51 25.07118 121.22169 100 ft 13 kts 141°
2026-04-26 10:52 25.07067 121.22216 101 ft 16 kts 139°
2026-04-26 10:52 25.06967 121.22316 101 ft 19 kts 136°
2026-04-26 10:52 25.06858 121.22417 101 ft 21 kts 141°
2026-04-26 10:52 25.06747 121.22521 101 ft 23 kts 139°
2026-04-26 10:53 25.06626 121.22581 100 ft 11 kts 193°
2026-04-26 10:53 25.06586 121.22532 100 ft 9 kts 239°
2026-04-26 10:53 25.06541 121.22463 101 ft 13 kts 230°
2026-04-26 10:54 25.06392 121.22276 101 ft 19 kts 224°
2026-04-26 10:54 25.06272 121.22254 100 ft 16 kts 186°
2026-04-26 10:54 25.06172 121.22282 98 ft 12 kts 144°
2026-04-26 10:54 25.06113 121.22368 96 ft 15 kts 94°
2026-04-26 10:55 25.06130 121.22412 96 ft 0 kts 47°
2026-04-26 10:55 25.06140 121.22424 96 ft 16 kts 48°
2026-04-26 10:55 25.06284 121.22606 97 ft 73 kts 48°
2026-04-26 10:56 25.06769 121.23225 94 ft 138 kts 47°
2026-04-26 10:56 25.07508 121.24167 334 ft 166 kts 49°
2026-04-26 10:56 25.08252 121.25113 1092 ft 167 kts 50°
2026-04-26 10:56 25.09027 121.26099 1792 ft 173 kts 51°
2026-04-26 10:57 25.09846 121.27171 2329 ft 192 kts 51°
2026-04-26 10:57 25.10748 121.28364 2719 ft 212 kts 51°
2026-04-26 10:57 25.11733 121.29663 3047 ft 234 kts 50°
2026-04-26 10:57 25.12920 121.31088 3419 ft 258 kts 47°
2026-04-26 10:58 25.14205 121.32542 4099 ft 270 kts 45°
2026-04-26 10:58 25.15573 121.34084 4937 ft 281 kts 45°
2026-04-26 10:58 25.16969 121.35669 5879 ft 287 kts 45°
2026-04-26 10:58 25.18371 121.37275 6779 ft 294 kts 45°
2026-04-26 10:59 25.19811 121.38929 7681 ft 298 kts 45°
2026-04-26 10:59 25.21273 121.40612 8567 ft 305 kts 45°
2026-04-26 10:59 25.22760 121.42326 9439 ft 311 kts 45°
2026-04-26 10:59 25.24272 121.44071 10253 ft 318 kts 45°
2026-04-26 11:00 25.25815 121.45937 10638 ft 342 kts 53°
2026-04-26 11:00 25.26887 121.48374 10915 ft 366 kts 77°
2026-04-26 11:00 25.27063 121.51269 11523 ft 372 kts 101°
2026-04-26 11:00 25.26433 121.54054 12265 ft 375 kts 111°
2026-04-26 11:01 25.25575 121.56754 12990 ft 380 kts 113°
2026-04-26 11:01 25.24669 121.59523 13763 ft 385 kts 112°
2026-04-26 11:01 25.23783 121.62344 14359 ft 392 kts 111°
2026-04-26 11:01 25.22920 121.65221 14978 ft 398 kts 111°
2026-04-26 11:02 25.22072 121.68132 15588 ft 403 kts 110°
2026-04-26 11:02 25.21203 121.71157 16216 ft 408 kts 110°
2026-04-26 11:02 25.20340 121.74170 16809 ft 414 kts 110°
2026-04-26 11:02 25.19453 121.77260 17415 ft 419 kts 110°
2026-04-26 11:03 25.18555 121.80349 18020 ft 422 kts 110°
2026-04-26 11:03 25.17655 121.83475 18464 ft 431 kts 110°
2026-04-26 11:03 25.16734 121.86685 18906 ft 434 kts 110°
2026-04-26 11:03 25.15805 121.89911 19006 ft 435 kts 110°
2026-04-26 11:04 25.14876 121.93126 19012 ft 433 kts 110°
2026-04-26 11:04 25.13957 121.96344 19016 ft 433 kts 108°
2026-04-26 11:04 25.13242 121.99628 19020 ft 435 kts 102°
2026-04-26 11:04 25.12792 122.03023 19021 ft 436 kts 97°
2026-04-26 11:05 25.12612 122.05236 19020 ft 436 kts 96°
2026-04-26 11:05 25.12337 122.08544 19019 ft 436 kts 96°
2026-04-26 11:05 25.12053 122.11941 19019 ft 435 kts 96°
2026-04-26 11:05 25.11683 122.16356 19024 ft 435 kts 96°
2026-04-26 11:06 25.11490 122.18645 19021 ft 435 kts 96°
2026-04-26 11:06 25.11206 122.22016 19021 ft 435 kts 96°
2026-04-26 11:06 25.10924 122.25345 19021 ft 435 kts 97°
2026-04-26 11:06 25.10643 122.28661 19022 ft 435 kts 97°
2026-04-26 11:07 25.10344 122.32020 19020 ft 434 kts 97°
2026-04-26 11:07 25.10021 122.35338 19023 ft 434 kts 97°
2026-04-26 11:07 25.09692 122.38665 19020 ft 434 kts 97°
2026-04-26 11:07 25.09368 122.41974 19020 ft 434 kts 97°
2026-04-26 11:08 25.09046 122.45282 19021 ft 434 kts 97°
2026-04-26 11:08 25.08725 122.48592 19022 ft 433 kts 97°
2026-04-26 11:08 25.08404 122.51909 19020 ft 433 kts 97°
2026-04-26 11:08 25.08079 122.55259 19021 ft 433 kts 97°
2026-04-26 11:09 25.07758 122.58557 19020 ft 432 kts 97°
2026-04-26 11:09 25.07436 122.61869 19021 ft 432 kts 97°
2026-04-26 11:09 25.07115 122.65157 19021 ft 432 kts 97°
2026-04-26 11:09 25.06794 122.68445 19021 ft 431 kts 97°
2026-04-26 11:10 25.06470 122.71741 19019 ft 431 kts 97°
2026-04-26 11:10 25.06147 122.75032 19019 ft 430 kts 97°
2026-04-26 11:10 25.05823 122.78319 19022 ft 430 kts 97°
2026-04-26 11:10 25.05499 122.81598 19020 ft 430 kts 97°
2026-04-26 11:11 25.05175 122.84873 19020 ft 429 kts 97°
2026-04-26 11:11 25.04850 122.88148 19019 ft 429 kts 97°
2026-04-26 11:11 25.04524 122.91431 19019 ft 429 kts 97°
2026-04-26 11:11 25.04198 122.94695 19022 ft 429 kts 97°
2026-04-26 11:12 25.03872 122.97963 19020 ft 429 kts 97°
2026-04-26 11:12 25.03539 123.01293 19021 ft 429 kts 97°
2026-04-26 11:12 25.03211 123.04578 19020 ft 429 kts 97°
2026-04-26 11:12 25.02924 123.07444 19020 ft 429 kts 98°
2026-04-26 11:13 25.02593 123.10731 19022 ft 428 kts 97°
2026-04-26 11:13 25.02223 123.13984 19018 ft 427 kts 104°
2026-04-26 11:13 25.01248 123.17100 19023 ft 422 kts 121°
2026-04-26 11:13 24.99581 123.19716 19023 ft 414 kts 139°
2026-04-26 11:14 24.97365 123.21683 19026 ft 406 kts 153°
2026-04-26 11:14 24.94932 123.23244 19021 ft 403 kts 156°
2026-04-26 11:14 24.92513 123.24706 19022 ft 403 kts 156°
2026-04-26 11:14 24.90856 123.25726 19022 ft 403 kts 155°
2026-04-26 11:15 24.87608 123.27800 19017 ft 404 kts 154°
2026-04-26 11:15 24.85195 123.29387 19020 ft 404 kts 154°
2026-04-26 11:15 24.82792 123.30989 19020 ft 404 kts 154°
2026-04-26 11:15 24.80452 123.32556 19019 ft 404 kts 153°
2026-04-26 11:16 24.78049 123.34164 19021 ft 404 kts 153°
2026-04-26 11:16 24.75614 123.35791 19019 ft 404 kts 153°
2026-04-26 11:16 24.73198 123.37405 19013 ft 403 kts 153°
2026-04-26 11:16 24.71584 123.38483 18892 ft 402 kts 153°
2026-04-26 11:17 24.69187 123.40080 18379 ft 404 kts 153°
2026-04-26 11:17 24.66759 123.41694 17490 ft 410 kts 153°
2026-04-26 11:17 24.64282 123.43342 16683 ft 410 kts 153°
2026-04-26 11:17 24.61846 123.44964 16014 ft 406 kts 153°
2026-04-26 11:18 24.59411 123.46586 15375 ft 402 kts 152°
2026-04-26 11:18 24.57035 123.48167 14751 ft 397 kts 152°
2026-04-26 11:18 24.54687 123.49728 14141 ft 394 kts 152°
2026-04-26 11:18 24.52452 123.51211 13518 ft 390 kts 152°
2026-04-26 11:19 24.50139 123.52743 12893 ft 385 kts 152°
2026-04-26 11:19 24.47822 123.54279 12265 ft 381 kts 152°
2026-04-26 11:19 24.45569 123.55771 11654 ft 377 kts 152°
2026-04-26 11:19 24.43327 123.57257 11066 ft 372 kts 151°
2026-04-26 11:20 24.41266 123.59025 10589 ft 369 kts 134°
2026-04-26 11:20 24.40230 123.60553 10470 ft 360 kts 121°
2026-04-26 11:20 24.39038 123.63843 10284 ft 341 kts 109°
2026-04-26 11:20 24.38291 123.66347 10152 ft 326 kts 109°
2026-04-26 11:21 24.37593 123.68672 10027 ft 312 kts 109°
2026-04-26 11:21 24.36996 123.70661 9676 ft 309 kts 109°
2026-04-26 11:21 24.36306 123.72961 9215 ft 307 kts 109°
2026-04-26 11:21 24.35645 123.75169 8802 ft 304 kts 109°
2026-04-26 11:22 24.34976 123.77398 8379 ft 302 kts 109°
2026-04-26 11:22 24.34327 123.79561 7991 ft 300 kts 109°
2026-04-26 11:22 24.33665 123.81765 7595 ft 297 kts 109°
2026-04-26 11:22 24.33013 123.83935 7174 ft 296 kts 109°
2026-04-26 11:23 24.32352 123.86130 6761 ft 294 kts 109°
2026-04-26 11:23 24.31711 123.88254 6346 ft 292 kts 109°
2026-04-26 11:23 24.31289 123.89654 6075 ft 291 kts 109°
2026-04-26 11:23 24.30638 123.91811 5679 ft 288 kts 109°
2026-04-26 11:24 24.30215 123.93210 5425 ft 286 kts 109°
2026-04-26 11:25 24.29760 123.94711 5136 ft 284 kts 108°
2026-04-26 11:25 24.29182 123.96616 4757 ft 283 kts 108°
2026-04-26 11:25 24.28570 123.98640 4454 ft 277 kts 108°
2026-04-26 11:25 24.27970 124.00628 4133 ft 272 kts 108°
2026-04-26 11:26 24.27378 124.02589 3814 ft 267 kts 107°
2026-04-26 11:26 24.26799 124.04505 3492 ft 263 kts 107°
2026-04-26 11:26 24.26234 124.06378 3193 ft 259 kts 107°
2026-04-26 11:26 24.25666 124.08258 3028 ft 259 kts 107°
2026-04-26 11:27 24.25114 124.10126 3002 ft 245 kts 103°
2026-04-26 11:27 24.25096 124.11891 3001 ft 225 kts 71°
2026-04-26 11:27 24.25882 124.13391 3007 ft 234 kts 47°
2026-04-26 11:27 24.27089 124.14585 2949 ft 230 kts 37°
2026-04-26 11:28 24.28358 124.15573 2643 ft 216 kts 35°
2026-04-26 11:28 24.29529 124.16506 2355 ft 194 kts 36°
2026-04-26 11:28 24.30576 124.17328 2113 ft 175 kts 37°
2026-04-26 11:28 24.31512 124.18071 1882 ft 154 kts 37°
2026-04-26 11:29 24.32324 124.18716 1681 ft 138 kts 37°
2026-04-26 11:29 24.33105 124.19333 1509 ft 137 kts 38°
2026-04-26 11:29 24.33904 124.19977 1301 ft 140 kts 38°
2026-04-26 11:29 24.34672 124.20623 1096 ft 139 kts 36°
2026-04-26 11:30 24.35429 124.21247 1000 ft 135 kts 36°
2026-04-26 11:30 24.35960 124.21642 894 ft 136 kts 34°
2026-04-26 11:30 24.36998 124.22442 619 ft 133 kts 36°
2026-04-26 11:30 24.37774 124.23049 447 ft 135 kts 35°
2026-04-26 11:31 24.38535 124.23642 266 ft 135 kts 34°
2026-04-26 11:31 24.39296 124.24235 116 ft 127 kts 32°
2026-04-26 11:31 24.39851 124.24676 100 ft 64 kts 36°
2026-04-26 11:31 24.39985 124.24827 108 ft 7 kts 93°
2026-04-26 11:32 24.39957 124.24879 109 ft 9 kts 124°
2026-04-26 11:32 24.39914 124.24933 110 ft 8 kts 153°
2026-04-26 11:32 24.39876 124.24924 109 ft 6 kts 209°
2026-04-26 11:32 24.39821 124.24882 106 ft 13 kts 215°
2026-04-26 11:33 24.39764 124.24835 104 ft 17 kts 218°
2026-04-26 11:33 24.39658 124.24746 105 ft 20 kts 216°
2026-04-26 11:33 24.39541 124.24657 111 ft 21 kts 215°
2026-04-26 11:33 24.39432 124.24572 112 ft 18 kts 216°
2026-04-26 11:34 24.39341 124.24498 117 ft 16 kts 216°
2026-04-26 11:34 24.39278 124.24447 116 ft 0 kts 217°
2026-04-26 11:34 24.39265 124.24440 114 ft 4 kts 200°
2026-04-26 11:34 24.39243 124.24454 117 ft 5 kts 147°
2026-04-26 11:35 24.39219 124.24490 117 ft 7 kts 125°
2026-04-26 11:35 24.39192 124.24532 115 ft 0 kts 126°
2026-04-26 11:35 24.39183 124.24544 117 ft 3 kts 128°
2026-04-26 11:35 24.39177 124.24553 114 ft 0 kts 125°
2026-04-26 11:36 24.39178 124.24551 114 ft 0 kts 126°